GW3550 Weather Reports


time (UTC)temp
C
wind
direction
speed
KPH
gust
KPH
rain 1hr
cm
rain 24hr
cm
rain mn
cm
humidity
%
barometer
mb
20260906110007 22 265 0.0 0.0 0.00 0.00 0.00 94 1015.2
20260906105503 22 265 0.0 0.0 0.00 0.00 0.00 94 1015.2
20260906104959 22 265 0.0 0.0 0.00 0.00 0.00 94 1015.1
20260906104457 22 265 0.0 0.0 0.00 0.00 0.00 94 1015.1
20260906103956 22 264 0.0 0.0 0.00 0.00 0.00 93 1015.2
20260906103455 22 263 0.0 0.0 0.00 0.00 0.00 94 1015.1
20260906102950 22 262 0.0 1.6 0.00 0.00 0.00 94 1015.0
20260906102444 22 262 0.0 0.0 0.00 0.00 0.00 94 1015.1
20260906101939 23 261 1.6 4.8 0.00 0.00 0.00 92 1014.8
20260906101434 23 262 0.0 1.6 0.00 0.00 0.00 93 1015.0
20260906100930 22 256 0.0 3.2 0.00 0.00 0.00 94 1014.9
20260906100429 22 256 1.6 1.6 0.00 0.00 0.00 95 1015.1
20260906095924 22 256 1.6 3.2 0.00 0.00 0.00 97 1015.0
20260906095420 22 258 1.6 1.6 0.00 0.00 0.00 99 1015.0
20260906094914 22 258 0.0 1.6 0.00 0.00 0.00 99 1014.9
20260906094408 22 258 1.6 1.6 0.00 0.00 0.00 99 1015.1
20260906093905 22 258 0.0 0.0 0.00 0.00 0.00 99 1014.9
20260906093401 22 258 0.0 0.0 0.00 0.00 0.00 99 1015.0
20260906092855 22 235 0.0 0.0 0.00 0.00 0.00 99 1015.2
20260906092355 22 235 0.0 0.0 0.00 0.00 0.00 99 1015.1
20260906091850 22 245 0.0 0.0 0.00 0.00 0.00 99 1015.3
20260906091347 22 238 0.0 0.0 0.00 0.00 0.00 99 1015.1
20260906090843 22 241 0.0 0.0 0.00 0.00 0.00 99 1015.1
20260906090342 22 237 0.0 0.0 0.00 0.00 0.00 99 1015.2
20260906085836 22 241 0.0 0.0 0.00 0.00 0.00 99 1015.2
20260906085335 22 241 0.0 0.0 0.00 0.00 0.00 99 1015.1
20260906084830 22 237 0.0 0.0 0.00 0.00 0.00 99 1015.1
20260906084330 22 241 0.0 0.0 0.00 0.00 0.00 99 1015.2
20260906083824 22 241 0.0 0.0 0.00 0.00 0.00 99 1015.2
20260906083320 22 241 0.0 0.0 0.00 0.00 0.00 99 1015.2
20260906082815 22 241 0.0 0.0 0.00 0.00 0.00 99 1015.0
20260906082309 22 237 0.0 0.0 0.00 0.00 0.00 99 1014.9
20260906081800 22 241 0.0 1.6 0.00 0.00 0.00 99 1014.8
20260906081255 22 241 0.0 0.0 0.00 0.00 0.00 99 1014.9
20260906080751 22 237 0.0 0.0 0.00 0.00 0.00 99 1015.0
20260906080248 22 241 0.0 1.6 0.00 0.00 0.00 99 1014.9
20260906075741 22 246 0.0 1.6 0.00 0.00 0.00 99 1015.0
20260906075236 22 223 0.0 1.6 0.00 0.00 0.00 99 1015.1
20260906074731 22 255 1.6 3.2 0.00 0.00 0.00 99 1014.8
20260906074230 22 246 1.6 4.8 0.00 0.00 0.00 99 1014.9
20260906073725 22 241 1.6 3.2 0.00 0.00 0.00 99 1015.0
20260906073220 22 235 3.2 4.8 0.00 0.00 0.00 99 1015.2
20260906072715 21 233 0.0 0.0 0.00 0.00 0.00 99 1015.0
20260906072211 22 233 0.0 0.0 0.00 0.00 0.00 99 1015.2
20260906071707 22 233 0.0 0.0 0.00 0.00 0.00 99 1015.1
20260906071206 22 233 0.0 0.0 0.00 0.00 0.00 99 1015.2
20260906070703 22 233 0.0 0.0 0.00 0.00 0.00 99 1015.2
20260906070158 22 233 0.0 0.0 0.00 0.00 0.00 99 1015.0
20260906065658 22 233 0.0 0.0 0.00 0.00 0.00 99 1015.2
20260906065153 22 233 0.0 1.6 0.00 0.00 0.00 99 1015.2
20260906064648 22 233 0.0 1.6 0.00 0.00 0.00 99 1015.2
20260906064144 22 233 0.0 0.0 0.00 0.00 0.00 99 1015.2
20260906063639 22 233 0.0 0.0 0.00 0.00 0.00 99 1015.3
20260906063135 22 233 0.0 0.0 0.00 0.00 0.00 99 1015.1
20260906062631 22 233 0.0 0.0 0.00 0.00 0.00 99 1015.2
20260906062129 22 233 0.0 0.0 0.00 0.00 0.00 99 1015.3
20260906061625 22 233 0.0 0.0 0.00 0.00 0.00 99 1015.4
20260906061125 22 233 0.0 0.0 0.00 0.00 0.00 99 1015.5
20260906060622 22 233 0.0 0.0 0.00 0.00 0.00 99 1015.7
20260906060120 22 233 0.0 0.0 0.00 0.00 0.00 99 1015.4
20260906055615 22 233 0.0 0.0 0.00 0.00 0.00 99 1015.4
20260906055110 22 233 0.0 0.0 0.00 0.00 0.00 99 1015.6
20260906054610 23 237 0.0 4.8 0.00 0.00 0.00 99 1015.7
20260906054100 22 228 3.2 4.8 0.00 0.00 0.00 99 1015.6
20260906053556 23 251 0.0 4.8 0.00 0.00 0.00 99 1015.9
20260906053052 22 232 3.2 3.2 0.00 0.00 0.00 99 1016.0
20260906052547 22 237 1.6 3.2 0.00 0.00 0.00 99 1015.9
20260906052044 22 242 0.0 3.2 0.00 0.00 0.00 99 1016.1
20260906051539 22 238 0.0 1.6 0.00 0.00 0.00 99 1016.1
20260906051034 22 245 0.0 3.2 0.00 0.00 0.00 99 1016.2
20260906050529 22 234 1.6 3.2 0.00 0.00 0.00 99 1016.1
20260906050024 22 244 0.0 1.6 0.00 0.00 0.00 99 1016.1
20260906045523 22 237 0.0 0.0 0.00 0.00 0.00 99 1016.2
20260906045019 22 228 0.0 3.2 0.00 0.00 0.00 99 1016.3
20260906044514 22 233 0.0 1.6 0.00 0.00 0.00 99 1016.1
20260906044010 22 240 0.0 0.0 0.00 0.00 0.00 99 1016.2
20260906043505 22 240 0.0 3.2 0.00 0.00 0.00 99 1015.8
20260906043001 22 240 0.0 0.0 0.00 0.00 0.00 99 1016.2
20260906042459 22 240 0.0 0.0 0.00 0.00 0.00 99 1015.8
20260906041959 22 240 0.0 1.6 0.00 0.00 0.00 99 1015.8
20260906041455 22 240 0.0 0.0 0.00 0.00 0.00 99 1015.8
20260906040955 22 240 0.0 0.0 0.00 0.00 0.00 99 1016.1
20260906040450 22 240 0.0 3.2 0.00 0.00 0.00 99 1016.0
20260906035939 22 239 0.0 1.6 0.00 0.08 0.08 99 1015.8
20260906035434 22 246 0.0 0.0 0.00 0.08 0.08 99 1015.8
20260906034930 22 237 0.0 0.0 0.00 0.08 0.08 99 1015.9
20260906034425 21 237 0.0 0.0 0.00 0.08 0.08 99 1016.3
20260906033920 21 237 0.0 0.0 0.00 0.08 0.08 99 1016.1
20260906033415 22 237 0.0 0.0 0.00 0.08 0.08 99 1016.0
20260906032911 22 234 0.0 0.0 0.00 0.08 0.08 99 1016.1
20260906032407 21 240 0.0 0.0 0.00 0.08 0.08 99 1016.1
20260906031901 22 244 0.0 0.0 0.00 0.08 0.08 99 1016.1
20260906031356 21 234 0.0 0.0 0.00 0.08 0.08 99 1016.2
20260906030851 21 232 0.0 0.0 0.00 0.08 0.08 99 1016.3
20260906030346 21 235 0.0 0.0 0.00 0.08 0.08 99 1016.3
20260906025840 21 228 0.0 0.0 0.00 0.08 0.08 99 1016.5
20260906025334 22 230 0.0 0.0 0.00 0.08 0.08 99 1016.4
20260906024833 21 227 0.0 0.0 0.00 0.08 0.08 99 1016.2
20260906024327 22 227 0.0 0.0 0.00 0.08 0.08 99 1016.3
20260906023823 22 226 0.0 0.0 0.00 0.08 0.08 98 1016.8
20260906023319 21 224 0.0 0.0 0.00 0.08 0.08 98 1016.8
20260906022814 22 232 0.0 0.0 0.00 0.08 0.08 98 1016.6
20260906022309 22 232 0.0 0.0 0.00 0.08 0.08 98 1016.3
20260906021805 22 233 0.0 0.0 0.00 0.08 0.08 97 1016.3
20260906021304 22 235 0.0 0.0 0.00 0.08 0.08 97 1016.5
20260906020758 22 235 0.0 0.0 0.00 0.08 0.08 97 1016.7
20260906020252 22 235 0.0 0.0 0.00 0.08 0.08 96 1016.6
20260906015747 22 233 0.0 0.0 0.00 0.08 0.08 97 1016.6
20260906015245 22 231 0.0 0.0 0.00 0.08 0.08 96 1016.8
20260906014740 22 234 0.0 0.0 0.00 0.08 0.08 96 1016.7
20260906014236 22 241 0.0 0.0 0.00 0.08 0.08 96 1016.7
20260906013732 22 251 0.0 0.0 0.00 0.08 0.08 95 1016.6
20260906013232 22 217 0.0 0.0 0.00 0.08 0.08 96 1016.4
20260906012727 22 237 0.0 0.0 0.00 0.08 0.08 96 1016.1
20260906012222 22 237 0.0 0.0 0.00 0.08 0.08 97 1016.3
20260906011717 22 273 0.0 0.0 0.00 0.08 0.08 96 1016.2
20260906011211 22 280 0.0 0.0 0.00 0.08 0.08 96 1015.9
20260906010707 22 241 0.0 0.0 0.00 0.08 0.08 96 1015.9
20260906010203 22 176 0.0 3.2 0.00 0.08 0.08 97 1015.9
20260906005703 22 223 0.0 0.0 0.00 0.08 0.08 97 1015.9
20260906005202 22 220 0.0 0.0 0.00 0.08 0.08 97 1016.3
20260906004701 22 232 0.0 3.2 0.00 0.08 0.08 97 1016.2
20260906004156 22 228 0.0 0.0 0.00 0.08 0.08 97 1016.0
20260906003646 22 216 0.0 0.0 0.00 0.08 0.08 97 1015.5
20260906003142 22 220 0.0 0.0 0.00 0.08 0.08 96 1015.4
20260906002642 22 228 0.0 0.0 0.00 0.08 0.08 96 1015.4
20260906002136 22 230 0.0 0.0 0.00 0.08 0.08 96 1015.2
20260906001632 22 211 0.0 0.0 0.00 0.08 0.08 96 1015.3
20260906001131 22 231 0.0 0.0 0.00 0.08 0.08 96 1015.2
20260906000627 22 103 0.0 1.6 0.00 0.08 0.08 95 1014.8
20260906000123 22 102 0.0 1.6 0.00 0.08 0.08 95 1014.4
20260905235621 22 244 0.0 1.6 0.00 0.08 0.08 95 1014.4
20260905235117 22 244 0.0 1.6 0.00 0.08 0.08 95 1014.7
20260905234612 22 18 0.0 3.2 0.00 0.08 0.08 95 1014.6
20260905234108 22 232 3.2 3.2 0.00 0.08 0.08 95 1014.8
20260905233607 22 253 1.6 3.2 0.00 0.08 0.08 95 1015.0
20260905233102 22 277 0.0 0.0 0.00 0.08 0.08 96 1014.6
20260905232557 22 40 1.6 3.2 0.00 0.08 0.08 95 1015.0
20260905232053 22 260 0.0 1.6 0.00 0.08 0.08 96 1015.1
20260905231548 22 174 1.6 1.6 0.00 0.08 0.08 96 1015.1
20260905231044 22 118 0.0 0.0 0.00 0.08 0.08 97 1015.1
20260905230543 22 269 0.0 1.6 0.00 0.08 0.08 97 1015.1
20260905230042 22 182 0.0 1.6 0.00 0.08 0.08 96 1014.7
20260905225537 22 53 1.6 4.8 0.00 0.08 0.08 95 1014.8
20260905225032 22 146 0.0 0.0 0.00 0.08 0.08 94 1014.4
20260905224526 23 78 0.0 4.8 0.00 0.08 0.08 92 1014.5
20260905224026 23 15 6.4 9.7 0.00 0.08 0.08 89 1014.6
20260905223524 23 246 6.4 6.4 0.00 0.08 0.08 91 1014.4
20260905223019 23 252 1.6 3.2 0.00 0.08 0.08 89 1014.2
20260905222513 23 242 0.0 1.6 0.00 0.08 0.08 90 1014.3
20260905222008 23 272 3.2 4.8 0.00 0.08 0.08 89 1014.4
20260905221505 23 253 3.2 4.8 0.13 0.08 0.08 89 1014.7
20260905221001 23 245 3.2 3.2 0.13 0.08 0.08 83 1014.9
20260905220457 23 241 1.6 3.2 0.30 0.05 0.05 81 1015.2
20260905215955 24 225 3.2 3.2 0.30 0.05 0.05 80 1015.7
20260905215451 25 288 4.8 6.4 0.00 0.00 0.00 75 1016.0
20260905214948 24 238 9.7 12.9 0.00 0.00 0.00 74 1015.8
20260905214443 25 179 4.8 9.7 0.00 0.00 0.00 72 1015.6
20260905213937 23 49 16.1 22.5 0.00 0.00 0.00 75 1015.4
20260905213433 23 38 27.4 37.0 0.00 0.00 0.00 80 1015.4
20260905212928 23 46 37.0 51.5 0.00 0.00 0.00 75 1015.1
20260905212423 24 6 30.6 51.5 0.00 0.00 0.00 82 1014.9
20260905211922 26 44 14.5 24.1 0.00 0.00 0.00 70 1015.5
20260905211418 28 19 9.7 25.7 0.00 0.00 0.00 68 1015.4
20260905210915 33 144 12.9 33.8 0.00 0.00 0.00 61 1014.8
20260905210415 35 50 0.0 1.6 0.00 0.00 0.00 52 1014.1
20260905205914 35 48 0.0 0.0 0.00 0.00 0.00 56 1013.6
20260905205408 35 47 0.0 0.0 0.00 0.00 0.00 57 1013.6
20260905204902 35 32 1.6 3.2 0.00 0.00 0.00 51 1014.0
20260905204358 35 40 3.2 6.4 0.00 0.00 0.00 53 1014.2
20260905203851 35 0 6.4 11.3 0.00 0.00 0.00 52 1013.8
20260905203347 35 32 4.8 11.3 0.00 0.00 0.00 53 1014.1
20260905202842 36 157 3.2 11.3 0.00 0.00 0.00 53 1014.3
20260905202336 37 44 1.6 3.2 0.00 0.00 0.00 48 1014.4
20260905201832 35 237 1.6 3.2 0.00 0.00 0.00 51 1014.3
20260905201328 35 242 0.0 11.3 0.00 0.00 0.00 51 1014.5
20260905200828 36 51 4.8 4.8 0.00 0.00 0.00 49 1014.6
20260905200325 37 5 0.0 3.2 0.00 0.00 0.00 47 1014.5
20260905195821 37 188 0.0 1.6 0.00 0.00 0.00 48 1014.6
20260905195317 36 188 0.0 1.6 0.00 0.00 0.00 51 1014.6
20260905194813 35 187 0.0 1.6 0.00 0.00 0.00 49 1014.5
20260905194312 35 186 0.0 0.0 0.00 0.00 0.00 49 1014.5
20260905193812 35 76 1.6 4.8 0.00 0.00 0.00 49 1014.4
20260905193307 36 193 0.0 1.6 0.00 0.00 0.00 47 1014.7
20260905192802 36 70 3.2 6.4 0.00 0.00 0.00 47 1014.9
20260905192258 37 13 1.6 4.8 0.00 0.00 0.00 45 1014.7
20260905191757 37 232 3.2 4.8 0.00 0.00 0.00 45 1014.8
20260905191256 36 17 3.2 6.4 0.00 0.00 0.00 46 1014.9
20260905190755 36 72 3.2 6.4 0.00 0.00 0.00 46 1014.9
20260905190254 36 233 0.0 4.8 0.00 0.00 0.00 48 1015.0
20260905185747 36 241 1.6 4.8 0.00 0.00 0.00 46 1015.3
20260905185243 35 242 0.0 4.8 0.00 0.00 0.00 49 1015.2
20260905184737 35 358 0.0 4.8 0.00 0.00 0.00 48 1015.4
20260905184236 36 19 1.6 3.2 0.00 0.00 0.00 49 1015.1
20260905183735 37 245 3.2 6.4 0.00 0.00 0.00 47 1015.4
20260905183230 37 232 0.0 3.2 0.00 0.00 0.00 48 1015.5
20260905182724 36 205 0.0 1.6 0.00 0.00 0.00 48 1015.3
20260905182218 36 78 0.0 3.2 0.00 0.00 0.00 51 1015.3
20260905181714 35 57 0.0 1.6 0.00 0.00 0.00 55 1015.4
20260905181212 36 221 3.2 6.4 0.00 0.00 0.00 50 1015.6
20260905180707 35 154 0.0 1.6 0.00 0.00 0.00 50 1015.7
20260905180203 34 211 0.0 4.8 0.00 0.00 0.00 54 1015.8
20260905175701 34 37 6.4 9.7 0.00 0.00 0.00 53 1015.8
20260905175157 35 219 0.0 3.2 0.00 0.00 0.00 51 1015.7
20260905174653 36 231 0.0 0.0 0.00 0.00 0.00 53 1015.8
20260905174148 36 230 1.6 3.2 0.00 0.00 0.00 48 1015.9
20260905173644 35 75 1.6 6.4 0.00 0.00 0.00 51 1016.2
20260905173139 36 245 0.0 3.2 0.00 0.00 0.00 47 1016.2
20260905172638 36 33 6.4 9.7 0.00 0.00 0.00 47 1016.2
20260905172133 35 247 0.0 4.8 0.00 0.00 0.00 52 1016.2
20260905171629 35 59 4.8 6.4 0.00 0.00 0.00 52 1016.3
20260905171125 36 242 3.2 6.4 0.00 0.00 0.00 53 1016.5
20260905170621 35 218 1.6 1.6 0.00 0.00 0.00 53 1016.3
20260905170117 34 205 1.6 3.2 0.00 0.00 0.00 54 1016.5
20260905165617 36 323 6.4 9.7 0.00 0.00 0.00 52 1016.5
20260905165107 35 209 0.0 3.2 0.00 0.00 0.00 55 1016.7
20260905164602 35 345 1.6 6.4 0.00 0.00 0.00 57 1016.6
20260905164101 35 190 0.0 4.8 0.00 0.00 0.00 60 1016.9
20260905163558 34 232 1.6 3.2 0.00 0.00 0.00 57 1016.9
20260905163054 35 253 3.2 4.8 0.00 0.00 0.00 57 1016.8
20260905162550 34 343 1.6 1.6 0.00 0.00 0.00 57 1016.9
20260905162043 35 234 4.8 4.8 0.00 0.00 0.00 55 1016.9
20260905161544 34 319 0.0 6.4 0.00 0.00 0.00 58 1017.3
20260905161041 33 260 0.0 4.8 0.00 0.00 0.00 59 1017.3
20260905160540 35 53 4.8 4.8 0.00 0.00 0.00 56 1017.4
20260905160035 33 251 0.0 3.2 0.00 0.00 0.00 58 1017.4
20260905155534 33 162 0.0 3.2 0.00 0.00 0.00 58 1017.0
20260905155033 33 23 4.8 6.4 0.00 0.00 0.00 60 1017.4
20260905154528 34 30 0.0 4.8 0.00 0.00 0.00 57 1017.5
20260905154024 33 321 1.6 4.8 0.00 0.00 0.00 57 1017.5
20260905153519 33 237 0.0 3.2 0.00 0.00 0.00 57 1017.6
20260905153019 33 268 0.0 1.6 0.00 0.00 0.00 61 1017.5
20260905152513 33 242 0.0 3.2 0.00 0.00 0.00 62 1017.7
20260905152008 33 254 3.2 6.4 0.00 0.00 0.00 61 1017.6
20260905151503 33 49 3.2 3.2 0.00 0.00 0.00 59 1017.8
20260905150958 33 193 0.0 1.6 0.00 0.00 0.00 61 1017.8
20260905150453 32 233 3.2 3.2 0.00 0.00 0.00 63 1017.8
20260905145950 33 237 1.6 3.2 0.00 0.00 0.00 61 1018.0
20260905145445 32 225 3.2 3.2 0.00 0.00 0.00 65 1017.8
20260905144944 32 244 0.0 6.4 0.00 0.00 0.00 65 1017.8
20260905144440 31 233 0.0 3.2 0.00 0.00 0.00 66 1017.8
20260905143939 31 278 9.7 11.3 0.00 0.00 0.00 64 1017.7
20260905143432 31 235 8.0 11.3 0.00 0.00 0.00 66 1017.9
20260905142927 31 243 1.6 3.2 0.00 0.00 0.00 66 1017.9
20260905142426 30 241 3.2 6.4 0.00 0.00 0.00 67 1017.9
20260905141922 31 270 3.2 9.7 0.00 0.00 0.00 67 1018.1
20260905141416 31 229 4.8 4.8 0.00 0.00 0.00 69 1018.1
20260905140913 30 232 1.6 6.4 0.00 0.00 0.00 71 1017.9
20260905140408 30 258 3.2 3.2 0.00 0.00 0.00 71 1018.0
20260905135906 30 241 0.0 0.0 0.00 0.00 0.00 73 1018.0
20260905135402 30 245 0.0 4.8 0.00 0.00 0.00 74 1018.0
20260905134858 29 250 1.6 3.2 0.00 0.00 0.00 75 1018.1
20260905134356 29 246 3.2 4.8 0.00 0.00 0.00 76 1018.0
20260905133850 28 232 3.2 4.8 0.00 0.00 0.00 76 1018.3
20260905133346 28 239 0.0 1.6 0.00 0.00 0.00 80 1018.2
20260905132845 28 233 0.0 0.0 0.00 0.00 0.00 81 1018.1
20260905132341 27 255 3.2 4.8 0.00 0.00 0.00 79 1018.1
20260905131834 27 255 4.8 6.4 0.00 0.00 0.00 81 1018.4
20260905131330 28 223 1.6 3.2 0.00 0.00 0.00 79 1018.2
20260905130825 27 244 0.0 1.6 0.00 0.00 0.00 82 1018.3
20260905130324 27 245 0.0 3.2 0.00 0.00 0.00 83 1018.4
20260905125820 27 230 0.0 3.2 0.00 0.00 0.00 84 1018.5
20260905125314 27 230 0.0 1.6 0.00 0.00 0.00 83 1018.3
20260905124810 26 230 0.0 0.0 0.00 0.00 0.00 85 1018.2
20260905124307 26 226 0.0 0.0 0.00 0.00 0.00 85 1018.5
20260905123801 26 224 0.0 0.0 0.00 0.00 0.00 86 1018.3
20260905123258 26 224 0.0 1.6 0.00 0.00 0.00 86 1018.0
20260905122752 26 222 0.0 0.0 0.00 0.00 0.00 86 1018.2
20260905122252 26 222 0.0 0.0 0.00 0.00 0.00 88 1018.1
20260905121747 25 221 0.0 0.0 0.00 0.00 0.00 90 1018.3
20260905121244 24 231 0.0 0.0 0.00 0.00 0.00 92 1018.1
20260905120742 24 231 0.0 0.0 0.00 0.00 0.00 93 1018.2
20260905120237 23 231 0.0 0.0 0.00 0.00 0.00 94 1017.9
20260905115732 23 231 0.0 0.0 0.00 0.00 0.00 95 1018.0
20260905115231 23 231 0.0 0.0 0.00 0.00 0.00 96 1017.9
20260905114726 22 231 0.0 0.0 0.00 0.00 0.00 97 1017.8
20260905114224 22 231 0.0 0.0 0.00 0.00 0.00 98 1017.8
20260905113719 22 229 0.0 0.0 0.00 0.00 0.00 99 1017.8
20260905113215 22 229 0.0 0.0 0.00 0.00 0.00 99 1017.6
20260905112715 22 229 0.0 0.0 0.00 0.00 0.00 99 1017.5
20260905112210 22 229 0.0 0.0 0.00 0.00 0.00 99 1017.5
20260905111709 22 229 0.0 0.0 0.00 0.00 0.00 99 1017.5
20260905111209 22 229 0.0 0.0 0.00 0.00 0.00 99 1017.5
20260905110703 22 229 0.0 0.0 0.00 0.00 0.00 99 1017.4
20260905110157 22 229 0.0 0.0 0.00 0.00 0.00 99 1017.3